Flag for Switzerland Weather past 2 weeks in Thalwil, Zurich, Switzerland

Now
48 °F

Passing clouds.


Feels Like: 48 °F
Forecast: 54 / 73 °F
Wind: 1 mph from North

Location: Zurich-Kloten

Current Time: Jul 31, 2015 at 7:08:26 AM

Latest Report: Jul 31, 2015 at 6:20 AM


Visibility: N/A

Pressure: 30.07 "Hg

Humidity: 82%

Dew point: 43 °F

Location of ThalwilLocation

Historic Weather in Thalwil — Graph

°F

Thalwil temperature yesterday

Maximum temperature yesterday: 72 °F (at 5:50 PM)
Minimum temperature yesterday: 50 °F (at 4:50 AM)
Average temperature yesterday: 61 °F

Past Weeks' High & Low Weather Summary

 TemperatureHumidityPressure
High95 °F (Jul 22, 3:20 PM)100% (Jul 16, 5:20 AM)30.21 "Hg (Jul 16, 5:20 AM)
Low50 °F (Jul 30, 4:50 AM)19% (Jul 16, 4:50 PM)29.74 "Hg (Jul 24, 5:20 PM)
Average71 °F65%29.98 "Hg
* Reported Jul 16 5:20 AM — Jul 31 5:20 AM, Thalwil, Weather by CustomWeather, © 2015

Note: Actual official high and low records may vary slightly from our data, if they occured in-between our weather recording intervals... More about our weather records

Advertising

Thalwil weather history for previous 24 hours

 ConditionsComfort  
Time TempWeatherWind HumidityBarometerVisibility
5:20 AM
Fri, Jul 31
50 °FPassing clouds.7 mph82%30.07 "HgN/A
4:50 AM52 °FPassing clouds.7 mph77%30.07 "HgN/A
4:20 AM52 °FPassing clouds.6 mph82%30.07 "HgN/A
3:50 AM52 °FPassing clouds.7 mph82%30.07 "HgN/A
3:20 AM55 °FPassing clouds.5 mph72%30.09 "HgN/A
2:50 AM54 °FPassing clouds.3 mph82%30.07 "HgN/A
1:50 AM52 °FPassing clouds.3 mph82%30.09 "HgN/A
1:20 AM54 °FClear.3 mph82%30.07 "Hg10 mi
12:50 AM57 °FPassing clouds.3 mph67%30.07 "HgN/A
12:20 AM57 °FPassing clouds.3 mph72%30.07 "HgN/A
11:20 PM
Thu, Jul 30
61 °FPassing clouds.3 mph59%30.07 "HgN/A
10:50 PM61 °FPassing clouds.5 mph59%30.07 "HgN/A
10:20 PM59 °FPassing clouds.6 mph63%30.07 "HgN/A
9:50 PM63 °FScattered clouds.3 mph52%30.04 "HgN/A
9:20 PM63 °FScattered clouds.3 mph52%30.04 "HgN/A
8:50 PM64 °FScattered clouds.5 mph49%30.04 "HgN/A
8:20 PM66 °FScattered clouds.5 mph43%30.01 "HgN/A
7:50 PM68 °FScattered clouds.7 mph40%30.01 "HgN/A
7:20 PM70 °FScattered clouds.7 mph35%30.01 "HgN/A
6:50 PM70 °FScattered clouds.5 mph33%30.01 "HgN/A
6:20 PM72 °FScattered clouds.7 mph31%30.01 "HgN/A
5:50 PM72 °FPassing clouds.7 mph33%30.01 "HgN/A
5:20 PM70 °FPassing clouds.9 mph35%30.01 "HgN/A
4:50 PM70 °FPassing clouds.6 mph35%30.01 "HgN/A
4:20 PM70 °FPassing clouds.6 mph35%30.01 "HgN/A
3:50 PM70 °FPassing clouds.7 mph33%30.01 "HgN/A
3:20 PM70 °FPassing clouds.9 mph33%30.01 "HgN/A
2:50 PM70 °FPassing clouds.6 mph33%30.01 "HgN/A
2:20 PM70 °FPassing clouds.8 mph33%30.04 "HgN/A
1:50 PM68 °FPassing clouds.7 mph35%30.04 "HgN/A
1:20 PM68 °FPassing clouds.7 mph35%30.04 "HgN/A
12:50 PM68 °FPassing clouds.6 mph38%30.04 "HgN/A
12:20 PM66 °FPassing clouds.6 mph37%30.04 "HgN/A
11:50 AM66 °FPassing clouds.3 mph40%30.04 "HgN/A
11:20 AM63 °FPassing clouds.5 mph49%30.04 "HgN/A
10:50 AM64 °FPassing clouds.2 mph49%30.04 "HgN/A
10:20 AM63 °FScattered clouds.2 mph73%30.04 "HgN/A
9:50 AM57 °FScattered clouds.2 mph94%30.04 "HgN/A
9:20 AM54 °FScattered clouds.2 mph100%30.04 "Hg4 mi
8:50 AM54 °FDense fog.2 mph100%30.04 "Hg1 mi
8:20 AM52 °FDense fog.2 mph100%30.04 "Hg0 mi
7:50 AM52 °FFog.1 mph100%30.04 "Hg0 mi
7:20 AM50 °FFog.1 mph100%30.04 "Hg0 mi
Weather by CustomWeather, © 2015

See weather overviewHow to use our weather pages